When you browse on this site, cookies collect data to enhance your experience and personalize the content and advertising you see.
Visit our Privacy Policy to learn more. By continuing to use the site, you agree to this use of cookies and data.
  • In Hungary
  • List of Countries
  • For 7 days
  • Water Temperature
  • Satellite Maps
  • Weather Map
  • News
  • Weather Widgets
  • user-avatar
    Login

    Hourly Weather San Bernabe Amaxac de Guerrero

    Today, 23 February, Saturday

    Time Temperature Precipitation Wind Pressure Humidity
    00:00 +15°C° 0 mm 1 mps 575 mmHg 42%
    01:00 +14°C° 0 mm 1 mps 574 mmHg 44%
    02:00 +13°C° 0 mm 1 mps 574 mmHg 47%
    03:00 +13°C° 0 mm 1 mps 574 mmHg 48%
    04:00 +12°C° 0 mm 0 mps 574 mmHg 50%
    05:00 +11°C° 0 mm 0 mps 574 mmHg 51%
    06:00 +13°C° 0 mm 0 mps 575 mmHg 47%
    07:00 +15°C° 0 mm 1 mps 576 mmHg 44%
    08:00 +18°C° 0 mm 1 mps 577 mmHg 41%
    09:00 +20°C° 0 mm 1 mps 577 mmHg 37%
    10:00 +22°C° 0 mm 1 mps 578 mmHg 32%
    11:00 +22°C° 0 mm 0 mps 579 mmHg 27%
    12:00 +25°C° 0 mm 1 mps 579 mmHg 26%
    13:00 +25°C° 0 mm 2 mps 578 mmHg 25%
    14:00 +26°C° 0 mm 2 mps 578 mmHg 23%
    15:00 +25°C° 0 mm 3 mps 578 mmHg 26%
    16:00 +24°C° 0 mm 3 mps 577 mmHg 28%
    17:00 +22°C° 0 mm 3 mps 577 mmHg 30%
    18:00 +21°C° 0 mm 2 mps 577 mmHg 36%
    19:00 +19°C° 0 mm 2 mps 577 mmHg 41%
    20:00 +19°C° 0 mm 1 mps 577 mmHg 46%
    21:00 +17°C° 0 mm 2 mps 577 mmHg 49%
    22:00 +16°C° 0 mm 2 mps 577 mmHg 53%
    23:00 +15°C° 0 mm 2 mps 577 mmHg 56%

    Tomorrow, 24 February, Sunday

    Time Temperature Precipitation Wind Pressure Humidity
    00:00 +15°C° 0 mm 2 mps 576 mmHg 57%
    01:00 +14°C° 0 mm 2 mps 576 mmHg 57%
    02:00 +14°C° 0 mm 2 mps 576 mmHg 58%
    03:00 +13°C° 0 mm 2 mps 575 mmHg 58%
    04:00 +12°C° 0 mm 2 mps 575 mmHg 59%
    05:00 +12°C° 0 mm 2 mps 575 mmHg 60%
    06:00 +13°C° 0 mm 2 mps 576 mmHg 59%
    07:00 +13°C° 0 mm 3 mps 577 mmHg 59%
    08:00 +14°C° 0 mm 3 mps 578 mmHg 59%
    09:00 +17°C° 0 mm 3 mps 579 mmHg 52%
    10:00 +19°C° 0 mm 3 mps 579 mmHg 45%
    11:00 +21°C° 0 mm 3 mps 580 mmHg 37%
    12:00 +21°C° 0 mm 3 mps 580 mmHg 37%
    13:00 +21°C° 0 mm 3 mps 579 mmHg 37%
    14:00 +22°C° 0 mm 3 mps 579 mmHg 37%
    15:00 +21°C° 0 mm 3 mps 578 mmHg 43%
    16:00 +19°C° 0 mm 3 mps 578 mmHg 48%
    17:00 +18°C° 0 mm 3 mps 577 mmHg 53%
    18:00 +17°C° 0 mm 3 mps 577 mmHg 60%
    19:00 +16°C° 0 mm 3 mps 577 mmHg 67%
    20:00 +13°C° 0 mm 3 mps 577 mmHg 74%
    21:00 +14°C° 0 mm 2 mps 577 mmHg 76%
    22:00 +13°C° 0 mm 2 mps 577 mmHg 79%
    23:00 +13°C° 0 mm 2 mps 577 mmHg 82%

    Day after tomorrow, 25 February, Monday

    Time Temperature Precipitation Wind Pressure Humidity
    00:00 +13°C° 0 mm 2 mps 577 mmHg 83%
    01:00 +12°C° 0 mm 1 mps 576 mmHg 85%
    02:00 +12°C° 0 mm 1 mps 576 mmHg 86%
    03:00 +12°C° 0 mm 1 mps 575 mmHg 86%
    04:00 +11°C° 0 mm 1 mps 575 mmHg 87%
    05:00 +11°C° 0 mm 1 mps 575 mmHg 87%
    06:00 +12°C° 0 mm 1 mps 576 mmHg 80%
    07:00 +14°C° 0 mm 1 mps 577 mmHg 72%
    08:00 +15°C° 0 mm 2 mps 578 mmHg 64%
    09:00 +18°C° 0 mm 1 mps 579 mmHg 55%
    10:00 +21°C° 0 mm 1 mps 580 mmHg 46%
    11:00 +23°C° 0 mm 1 mps 581 mmHg 38%
    12:00 +23°C° 0 mm 1 mps 580 mmHg 36%
    13:00 +24°C° 0 mm 1 mps 580 mmHg 34%
    14:00 +24°C° 0 mm 1 mps 579 mmHg 33%
    15:00 +23°C° 0.3 mm 1 mps 578 mmHg 36%
    16:00 +22°C° 0.3 mm 1 mps 578 mmHg 40%
    17:00 +21°C° 0.3 mm 1 mps 577 mmHg 43%
    18:00 +20°C° 0.4 mm 1 mps 578 mmHg 48%
    19:00 +19°C° 0.4 mm 1 mps 578 mmHg 54%
    20:00 +18°C° 0.4 mm 1 mps 578 mmHg 59%
    21:00 +16°C° 0.4 mm 1 mps 578 mmHg 62%
    22:00 +16°C° 0.4 mm 1 mps 577 mmHg 65%
    23:00 +14°C° 0.4 mm 0 mps 577 mmHg 67%

    26 February, Tuesday

    Time Temperature Precipitation Wind Pressure Humidity
    00:00 +15°C° 0.1 mm 1 mps 577 mmHg 68%
    01:00 +15°C° 0.1 mm 1 mps 576 mmHg 69%
    02:00 +14°C° 0.1 mm 1 mps 576 mmHg 70%
    03:00 +14°C° 0 mm 1 mps 576 mmHg 72%
    04:00 +14°C° 0 mm 1 mps 576 mmHg 73%
    05:00 +12°C° 0 mm 0 mps 576 mmHg 74%
    06:00 +15°C° 0 mm 1 mps 577 mmHg 68%
    07:00 +16°C° 0 mm 1 mps 578 mmHg 62%
    08:00 +18°C° 0 mm 1 mps 579 mmHg 56%
    09:00 +20°C° 0 mm 1 mps 579 mmHg 49%
    10:00 +22°C° 0 mm 1 mps 580 mmHg 41%
    11:00 +24°C° 0 mm 2 mps 580 mmHg 33%
    12:00 +25°C° 0 mm 2 mps 580 mmHg 30%
    13:00 +25°C° 0 mm 2 mps 579 mmHg 28%
    14:00 +26°C° 0 mm 2 mps 579 mmHg 26%
    15:00 +25°C° 0 mm 2 mps 578 mmHg 29%
    16:00 +24°C° 0 mm 2 mps 578 mmHg 33%
    17:00 +23°C° 0 mm 2 mps 578 mmHg 36%
    18:00 +22°C° 0 mm 1 mps 578 mmHg 41%
    19:00 +21°C° 0 mm 1 mps 578 mmHg 46%
    20:00 +19°C° 0 mm 1 mps 578 mmHg 51%
    21:00 +19°C° 0.1 mm 1 mps 578 mmHg 54%
    22:00 +18°C° 0.1 mm 1 mps 577 mmHg 57%
    23:00 +16°C° 0.1 mm 1 mps 577 mmHg 60%

    27 February, Wednesday

    Time Temperature Precipitation Wind Pressure Humidity
    00:00 +16°C° 0 mm 1 mps 576 mmHg 62%
    01:00 +15°C° 0 mm 1 mps 576 mmHg 64%
    02:00 +15°C° 0 mm 1 mps 575 mmHg 66%
    03:00 +14°C° 0 mm 1 mps 575 mmHg 67%
    04:00 +14°C° 0 mm 1 mps 575 mmHg 68%
    05:00 +13°C° 0 mm 1 mps 575 mmHg 69%
    06:00 +15°C° 0 mm 1 mps 576 mmHg 62%
    07:00 +16°C° 0 mm 1 mps 577 mmHg 56%
    08:00 +19°C° 0 mm 1 mps 578 mmHg 49%
    09:00 +21°C° 0 mm 1 mps 579 mmHg 40%
    10:00 +23°C° 0 mm 1 mps 579 mmHg 30%
    11:00 +25°C° 0 mm 2 mps 580 mmHg 21%
    12:00 +26°C° 0 mm 2 mps 580 mmHg 20%
    13:00 +26°C° 0 mm 2 mps 579 mmHg 19%
    14:00 +27°C° 0 mm 2 mps 579 mmHg 17%
    15:00 +26°C° 0 mm 2 mps 578 mmHg 22%
    16:00 +25°C° 0 mm 2 mps 578 mmHg 26%
    17:00 +24°C° 0 mm 3 mps 578 mmHg 30%
    18:00 +21°C° 0 mm 2 mps 578 mmHg 37%
    19:00 +21°C° 0 mm 1 mps 577 mmHg 45%
    20:00 +19°C° 0 mm 1 mps 577 mmHg 53%
    21:00 +18°C° 0 mm 1 mps 577 mmHg 54%
    22:00 +18°C° 0 mm 1 mps 577 mmHg 56%
    23:00 +16°C° 0 mm 1 mps 576 mmHg 58%

    28 February, Thursday

    Time Temperature Precipitation Wind Pressure Humidity
    00:00 +14°C° 0 mm 0 mps 576 mmHg 60%
    01:00 +14°C° 0 mm 0 mps 575 mmHg 62%
    02:00 +13°C° 0 mm 0 mps 575 mmHg 64%
    03:00 +13°C° 0 mm 0 mps 574 mmHg 65%
    04:00 +12°C° 0 mm 0 mps 574 mmHg 66%
    05:00 +13°C° 0 mm 1 mps 574 mmHg 68%
    06:00 +14°C° 0 mm 0 mps 575 mmHg 62%
    07:00 +15°C° 0 mm 0 mps 576 mmHg 55%
    08:00 +17°C° 0 mm 0 mps 577 mmHg 49%
    09:00 +21°C° 0 mm 1 mps 578 mmHg 39%
    10:00 +23°C° 0 mm 1 mps 578 mmHg 29%
    11:00 +24°C° 0 mm 2 mps 579 mmHg 19%
    12:00 +25°C° 0 mm 2 mps 578 mmHg 18%
    13:00 +26°C° 0 mm 2 mps 578 mmHg 17%
    14:00 +27°C° 0 mm 2 mps 577 mmHg 15%
    15:00 +26°C° 0 mm 2 mps 577 mmHg 18%
    16:00 +25°C° 0 mm 3 mps 577 mmHg 21%
    17:00 +24°C° 0 mm 3 mps 576 mmHg 23%
    18:00 +23°C° 0 mm 2 mps 576 mmHg 29%
    19:00 +20°C° 0 mm 2 mps 576 mmHg 35%
    20:00 +19°C° 0 mm 1 mps 575 mmHg 41%
    21:00 +18°C° 0 mm 1 mps 575 mmHg 43%
    22:00 +18°C° 0 mm 1 mps 575 mmHg 45%
    23:00 +16°C° 0 mm 1 mps 575 mmHg 48%
    Show more